Weather in Elhovo

Bulgaria     42°10′19″N   26°34′08″E
temp.,
°C
wind,
m/s
gust,
m/s
humid.,
%
clouds,
%
prec.,
mm/h
press.,
hPa
HPBL,
m
7 march, sun
sun723:00+3ene5782100 0.0 1030719
02:00+1nne249073 0.0 1030123
05:000nne22860 0.0 103061
08:00+1ne23710 0.0 1030215
11:00+5e22550 0.0 10291173
14:00+7n014833 0.0 10261502
17:00+6sse014533 0.0 10241330
20:00+3s126316 0.0 102425
8 march, mon
mon823:00+2s33710 0.0 102377
02:000s35820 0.0 1021128
05:00−1s12870 0.0 101946
08:00+1s22780 0.0 1019148
11:00+8wsw34560 0.0 1018831
14:00+11wsw33460 0.0 10171149
17:00+10wsw235210 0.0 1015654
20:00+6s22685 0.0 101726
9 march, tue
tue923:00+4s12850 0.0 101826
02:00+3sse11868 0.0 101822
05:00+3ssw008724 0.0 101822
08:00+4ene117842 0.0 101947
11:00+9e225297 0.0 1019612
14:00+11e224387 0.0 10181267
17:00+10ene2252100 0.0 1017446
20:00+7ene3467100 0.0 1019101
10 march, wed
wed1023:00+5ene237298 0.0 101988
02:00+5ene256899 0.0 1018202
05:00+5ne4686100 0.7 1018433
08:00+4ne3592100 3.1 1018448
11:00+4n4595100 1.1 1019379
14:00+8n3571100 1.2 1019921
17:00+8nnw366292 0.2 10181235
20:00+4nne488373 0.4 1021407
11 march, thu
thu1123:00+2nne388646 0.0 1024254
02:00+3nne589464 0.1 1026521
05:00+3nne4784100 0.0 1026541
08:00+3ene358083 0.0 1028374
11:00+6e116141 0.0 10281038
14:00+8s225253 0.0 10261288
17:00+8ssw44540 0.0 10251330
20:00+4s49740 0.0 1025263